Location: Unspecified
(38.0989°N, 0.6729°W)
Time: 13:30:59
(UTC+01:00)

ISS - Pass Details

Date: 26 November 2017
Orbit: 403 x 407 km, 51.6° (Epoch: 12 December)

Event Time Altitude Azimuth Distance (km) Brightness Sun altitude
Rises 19:52:08 0° 237° (WSW) 2,318 1.1 -24.7°
Reaches altitude 10° 19:54:13 10° 240° (WSW) 1,460 -0.1 -25.1°
Enters shadow 19:56:00 29° 250° (WSW) 774 -1.8 -25.5°
